THOR ABLESTAR DEB, 125

Orbit data source: Space-Track

THOR ABLESTAR DEB, 125 is space debris in LEO originally from a launch on Thu, 29 Jun 1961 UTC launched from the Air Force Eastern Test Range (AFETR). Debris objects in space refer to the collection of defunct objects orbiting the Earth. Examples of debris include non-operational satellites, rocket bodies, and fragments generated from explosions, collisions, or faulty payload assembly.

Loading next visibility...
Identifier
125, 1961-015K
Orbit
LEO
Last TLE update
1 day ago
Origin
Manufacturer
Unknown
Mission
Spacecraft
Bus & Motor
Unknown
Mass
Unknown
Launch date (UTC)
1961-06-29 (64 years ago)
Launch vehicle
Unknown
Launch site
Air Force Eastern Test Range (AFETR)
Object type
Payload
Rocket body
Debris
Shape & HBR
Unknown
Radar Cross Section
Small (<0.1 m²)

Expand to show TLE details & history

TLE from 1 day ago
0 THOR ABLESTAR DEB
1 00125U 61015K   25114.82846627  .00000675  00000-0  43813-3 0  9997
2 00125  66.8751 256.3372 0072991   5.6794 354.5104 14.07299456258385
Epoch: 2025-04-24T19:52Z
Definitive object data (Epoch: 2025-04-24T19:52:59.485Z)
Latitude
-0.00006°
Longitude
104.99503°
Altitude
818.071 km
Speed
7.472 km/s
True Right ascension
17h 05m 20s
True Declination
0° 00' 00"
Sunlit
Object was in full shadow at TLE epoch
Visualization TLE readout
Latitude
65.4956°
Longitude
171.20733°
Altitude
866.28 km
Speed
7.432 km/s
Apparent Right ascension
17h 32m 21s
Apparent Declination
23° 43' 10"
Sunlit
Object is in daylight
Visualization observer readout
Local Sidereal Time
03:24:27
Azimuth
328.998° NNW
Elevation
-19.727°
Doppler factor
1
Orbital elements
Apogee altitude
919.883 km
Perigee altitude
814.117 km
Semi-major axis
7,245.137 km
Eccentricity
0.0072991
Inclination
66.8751°
RAAN
256.3372°
Arg. of periapsis
5.6794°
True anomaly
354.42965°
Mean anomaly
354.5104°
Eccentric anomaly
354.4701°
Mean motion
3.51944 °/min
BSTAR
0.00043813
Orbital period
102.29 mins
Loading maneuver chart data...
Loading SW <> Apogee altitude chart data...

THOR ABLESTAR DEB Visibility forecast

Observer location: undefined°, undefined°

Span
Click to sort rows by Start time (UTC) header in descending order
Start Az.
Max El. time (UTC)
Max El. Az.
Max El.
End time (UTC)
End Az.
11 mins2025-04-25 20:18:33.728Z328.366° NNW2025-04-25 20:24:33.728Z212.626° SW44.224°2025-04-25 20:29:33.728Z158.662° S
7 mins2025-04-26 09:31:33.728Z148.399° SSE2025-04-26 09:35:33.728Z100.477° ESE18.371°2025-04-26 09:38:33.728Z65.269° ENE
9 mins2025-04-26 11:15:33.728Z227.063° WSW2025-04-26 11:19:33.728Z289.23° WNW39.806°2025-04-26 11:24:33.728Z19.271° NNE
7 mins2025-04-26 18:28:33.728Z8.604° NNE2025-04-26 18:31:33.728Z46.426° ENE20.444°2025-04-26 18:35:33.728Z91.952° ESE
|